Starlink 4783

operational
NORAD ID: 53835 Int'l Des: 2022-114 Owner: SPXS Country: US Constellation: starlink
LEOCIRCULAR

About Starlink 4783

Description loading...

Live Position

Loading 3D Globe...

Upcoming Passes

Altitude History

Altitude vs Time

uPlot chart will show altitude changes over time

Two-Line Element Set

1 53835U 22114T 25303.65550318 -.00000295 00000-0 -46667-6 0 9993
2 53835 53.2151 167.6538 0001316 88.6152 271.4991 15.08833079173200
Epoch: Oct 30, 2025 • Age: 16 hours

Current Status

Altitude 544.3 km
Velocity 7.60 km/s
Sub-Earth Point 47.86°N, 127.54°E
Launch Date Sep 19, 2022
Age 3.1 years
Type internet

Technical Details

Classification Payload
Mass 305.00 kg
Dry Mass 290.00 kg
Total Mass 305.00 kg
Length 0.20 m
Diameter 2.80 m
Span 9.00 m
Shape Box + pan
Manufacturer SPXS
Bus Type Starlink
Phase Status In Orbit
Owner/State SPXS/US

Large Constellations

Loading constellations...